Location: Krasnoyarskiy Pitomnik
(51.1333°N, 71.6167°E)
Time: 11:31:00
(UTC+00:00)

Altair - Pass Details

Date: 14 April 2024
Orbit: 1501 x 1682 km, 47.2° (Epoch: 27 April)

Event Time Altitude Azimuth Distance (km) Brightness Sun altitude
Rises 16:11:51 0° 231° (SW) 4,890 10.3 -17.6°
Reaches altitude 10° 16:15:07 10° 227° (SW) 3,886 9.7 -17.9°
Maximum altitude 16:24:36 53° 155° (SSE) 1,910 7.6 -19.0°
Drops below altitude 10° 16:33:45 10° 82° (E) 3,759 9.2 -20.0°
Sets 16:36:52 0° 78° (ENE) 4,721 9.8 -20.3°
